sat.trackr.live / text

‹ back to catalog

STARLINK-4697

NORAD 53726 · 2022-107AC

PAYLOAD ACTIVE UNKNOWN

§ Identity

Operator
Country
US
Launch date
2022-09-05
Launch site
AFETR
Launch vehicle
Mass (kg)
RCS (m²)

Purposes: comms

External: N2YO · Heavens-Above · Gunter

§ Orbital elements

Epoch: 2026-09-19T21:29:14.466048Z

Period
93.85 min
Inclination
53.1597°
Eccentricity
0.0001237
Mean motion
15.34385036 rev/d
Perigee alt
461.9 km
Apogee alt
463.6 km
Semi-major
6,840.9 km
B*
3.8263e-5
RAAN
88.2020°
Arg perigee
83.8541°
Mean anomaly
276.2603°
Rev number
22,392

§ Raw data

STARLINK-46971 53726U 22107AC  26262.89530632  .00000916  00000+0  38263-4 0  99902 53726  53.1597  88.2020 0001237  83.8541 276.2603 15.34385036223929

JSON: /api/v1/satellites/53726 · /tle

For live sub-satellite position, see the globe view (requires WebGL).

§ Visibility from observer

Set your observer location to see the next 7 days of passes ≥ 10°. The values pass through the URL so the page stays shareable.

No JS? Fill the form by hand. The geolocation button needs JavaScript.